Location: Unspecified
(0.0000°N, 0.0000°E)
Time: 18:59:11
(UTC+00:00)

Vanguard 2 Rocket - Pass Details

Date: 24 January 2020
Orbit: 554 x 3327 km, 32.9° (Epoch: 20 February)

Event Time Altitude Azimuth Distance (km) Brightness Sun altitude
Rises 17:42:40 0° 250° (WSW) 7,301 14.3 6.9°
Reaches altitude 10° 17:50:52 10° 232° (SW) 6,243 12.9 5.0°
Maximum altitude 18:01:59 17° 197° (SSW) 5,233 11.3 2.4°
Drops below altitude 10° 18:11:27 10° 161° (SSE) 5,198 10.8 0.1°
Sets 18:17:14 0° 141° (SE) 5,678 10.8 -1.2°
